Location: Bavegemberg
(50.9500°N, 3.8833°E)
Time: 22:43:17
(UTC+00:00)

FENGYUN 1C DEB - Pass Details

Date: 04 October 2024
Orbit: 755 x 948 km, 98.7° (Epoch: 11 November)

Event Time Altitude Azimuth Distance (km) Brightness Sun altitude
Exits shadow 23:39:56 15° 347° (NNW) 2,141 ? -43.9°
Drops below altitude 10° 23:40:49 10° 346° (NNW) 2,486 ? -43.9°
Sets 23:43:15 0° 346° (NNW) 3,457 ? -43.8°
